Time,TemperatureF,DewpointF,PressureIn,WindDirection,WindDirectionDegrees,WindSpeedMPH,WindSpeedGustMPH,Humidity,HourlyPrecipIn,Conditions,Clouds,dailyrainin,SoftwareType,DateUTC
2013-01-26 00:03:00,15.6,10.0,29.93,WNW,292,8.1,8.1,78,0.00,,,0.00,WUHU21623XXSP,2013-01-26 06:03:00,
2013-01-26 00:07:00,15.6,10.0,29.93,WNW,292,0.0,8.1,78,0.00,,,0.00,WUHU21623XXSP,2013-01-26 06:07:00,
2013-01-26 00:08:00,15.6,10.0,29.93,WNW,292,0.0,8.1,78,0.00,,,0.00,WUHU21623XXSP,2013-01-26 06:08:00,
2013-01-26 00:31:00,14.7,9.4,29.94,South,180,5.1,5.1,79,0.00,,,0.00,WUHU21623XXSP,2013-01-26 06:31:00,
2013-01-26 01:31:00,13.5,8.5,29.96,NNE,23,10.7,10.7,80,0.00,,,0.00,WUHU21623XXSP,2013-01-26 07:31:00,
2013-01-26 02:31:00,12.0,7.0,29.98,WNW,293,3.1,3.1,80,0.00,,,0.00,WUHU21623XXSP,2013-01-26 08:31:00,
2013-01-26 03:31:00,10.9,5.9,30.00,WNW,293,4.5,4.5,80,0.00,,,0.00,WUHU21623XXSP,2013-01-26 09:31:00,
2013-01-26 04:31:00,9.7,4.8,30.01,WNW,293,0.0,0.0,80,0.00,,,0.00,WUHU21623XXSP,2013-01-26 10:31:00,
2013-01-26 05:31:00,8.2,3.6,30.02,West,270,0.0,0.0,81,0.00,,,0.00,WUHU21623XXSP,2013-01-26 11:31:00,
2013-01-26 06:31:00,7.3,2.9,30.05,WSW,248,0.0,0.0,82,0.00,,,0.00,WUHU21623XXSP,2013-01-26 12:31:00,
2013-01-26 07:31:00,7.2,2.8,30.07,WNW,293,1.8,1.8,82,0.00,,,0.00,WUHU21623XXSP,2013-01-26 13:31:00,
2013-01-26 07:36:00,7.3,3.0,30.08,West,270,3.1,3.1,82,0.00,,,0.00,WUHU21623XXSP,2013-01-26 13:36:00,
2013-01-26 07:41:00,7.5,3.2,30.08,WNW,292,1.6,3.1,82,0.00,,,0.00,WUHU21623XXSP,2013-01-26 13:41:00,
2013-01-26 07:46:00,7.7,3.3,30.08,WSW,247,3.6,3.6,82,0.00,,,0.00,WUHU21623XXSP,2013-01-26 13:46:00,
2013-01-26 07:51:00,8.1,3.7,30.08,WNW,292,2.7,3.6,82,0.00,,,0.00,WUHU21623XXSP,2013-01-26 13:51:00,
2013-01-26 07:56:00,8.2,3.9,30.08,WNW,292,0.0,2.7,82,0.00,,,0.00,WUHU21623XXSP,2013-01-26 13:56:00,
2013-01-26 08:01:00,8.6,4.2,30.08,WNW,292,0.0,3.1,82,0.00,,,0.00,WUHU21623XXSP,2013-01-26 14:01:00,
2013-01-26 08:06:00,9.3,4.9,30.08,WSW,247,0.0,3.1,82,0.00,,,0.00,WUHU21623XXSP,2013-01-26 14:06:00,
2013-01-26 08:11:00,10.0,5.1,30.09,SW,225,0.0,0.0,81,0.00,,,0.00,WUHU21623XXSP,2013-01-26 14:11:00,
2013-01-26 08:16:00,10.6,5.5,30.09,West,270,0.0,0.0,80,0.00,,,0.00,WUHU21623XXSP,2013-01-26 14:16:00,
2013-01-26 08:21:00,10.8,5.4,30.08,SW,225,0.0,0.0,79,0.00,,,0.00,WUHU21623XXSP,2013-01-26 14:21:00,
2013-01-26 08:26:00,10.8,5.3,30.09,WSW,247,0.0,0.0,79,0.00,,,0.00,WUHU21623XXSP,2013-01-26 14:26:00,
2013-01-26 08:31:00,10.8,5.4,30.09,WNW,292,0.0,0.0,79,0.00,,,0.00,WUHU21623XXSP,2013-01-26 14:31:00,
2013-01-26 08:36:00,11.1,5.8,30.09,NNW,337,0.0,0.0,79,0.00,,,0.00,WUHU21623XXSP,2013-01-26 14:36:00,
2013-01-26 08:42:00,11.1,5.5,30.09,West,270,3.8,3.8,78,0.00,,,0.00,WUHU21623XXSP,2013-01-26 14:42:00,
2013-01-26 08:47:00,11.3,5.7,30.09,West,270,0.0,3.8,78,0.00,,,0.00,WUHU21623XXSP,2013-01-26 14:47:00,
2013-01-26 08:52:00,11.3,5.7,30.09,WSW,247,3.8,3.8,78,0.00,,,0.00,WUHU21623XXSP,2013-01-26 14:52:00,
2013-01-26 08:56:00,11.5,5.6,30.10,West,270,4.0,4.0,77,0.00,,,0.00,WUHU21623XXSP,2013-01-26 14:56:00,
2013-01-26 09:02:00,11.5,5.6,30.10,West,270,2.2,4.0,77,0.00,,,0.00,WUHU21623XXSP,2013-01-26 15:02:00,
2013-01-26 09:07:00,11.5,5.6,30.10,WNW,292,0.0,2.2,77,0.00,,,0.00,WUHU21623XXSP,2013-01-26 15:07:00,
2013-01-26 09:12:00,12.0,6.1,30.11,SW,225,2.2,3.1,77,0.00,,,0.00,WUHU21623XXSP,2013-01-26 15:12:00,
2013-01-26 09:17:00,12.2,6.3,30.11,SSW,202,3.4,3.4,77,0.00,,,0.00,WUHU21623XXSP,2013-01-26 15:17:00,
2013-01-26 09:22:00,12.2,6.0,30.11,WNW,292,4.9,4.9,76,0.00,,,0.00,WUHU21623XXSP,2013-01-26 15:22:00,
2013-01-26 09:27:00,12.7,6.5,30.11,WSW,247,0.0,4.9,76,0.00,,,0.00,WUHU21623XXSP,2013-01-26 15:27:00,
2013-01-26 09:32:00,12.7,6.5,30.11,WSW,247,2.5,4.9,76,0.00,,,0.00,WUHU21623XXSP,2013-01-26 15:32:00,
2013-01-26 09:37:00,12.9,6.4,30.12,West,270,0.0,2.5,75,0.00,,,0.00,WUHU21623XXSP,2013-01-26 15:37:00,
2013-01-26 09:42:00,13.1,6.6,30.12,West,270,0.0,3.8,75,0.00,,,0.00,WUHU21623XXSP,2013-01-26 15:42:00,
2013-01-26 09:47:00,13.3,6.8,30.12,East,90,0.7,3.8,75,0.00,,,0.00,WUHU21623XXSP,2013-01-26 15:47:00,
2013-01-26 09:52:00,13.3,6.8,30.13,SW,225,0.0,0.7,75,0.00,,,0.00,WUHU21623XXSP,2013-01-26 15:52:00,
2013-01-26 09:57:00,13.8,7.3,30.13,SSW,202,3.4,4.7,75,0.00,,,0.00,WUHU21623XXSP,2013-01-26 15:57:00,
2013-01-26 10:02:00,13.8,7.3,30.13,West,270,0.0,4.7,74,0.00,,,0.00,WUHU21623XXSP,2013-01-26 16:02:00,
2013-01-26 10:07:00,14.2,7.4,30.13,West,270,0.0,5.1,74,0.00,,,0.00,WUHU21623XXSP,2013-01-26 16:07:00,
2013-01-26 10:12:00,14.4,7.6,30.13,WNW,292,0.0,5.1,74,0.00,,,0.00,WUHU21623XXSP,2013-01-26 16:12:00,
2013-01-26 10:17:00,14.5,7.7,30.13,WNW,292,0.0,2.9,74,0.00,,,0.00,WUHU21623XXSP,2013-01-26 16:17:00,
2013-01-26 10:22:00,14.7,7.4,30.13,WSW,247,0.0,2.9,73,0.00,,,0.00,WUHU21623XXSP,2013-01-26 16:22:00,
2013-01-26 10:27:00,14.9,7.8,30.13,North,0,0.0,0.0,73,0.00,,,0.00,WUHU21623XXSP,2013-01-26 16:27:00,
2013-01-26 10:32:00,15.3,8.1,30.13,SW,225,2.2,3.4,73,0.00,,,0.00,WUHU21623XXSP,2013-01-26 16:32:00,
2013-01-26 10:37:00,15.4,8.3,30.13,SW,225,2.2,3.6,73,0.00,,,0.00,WUHU21623XXSP,2013-01-26 16:37:00,
2013-01-26 10:42:00,15.8,8.4,30.13,NNW,337,3.1,3.6,73,0.00,,,0.00,WUHU21623XXSP,2013-01-26 16:42:00,
2013-01-26 10:47:00,16.0,8.5,30.13,WSW,247,0.0,3.1,72,0.00,,,0.00,WUHU21623XXSP,2013-01-26 16:47:00,
2013-01-26 10:52:00,16.2,8.7,30.13,SW,225,3.1,3.1,72,0.00,,,0.00,WUHU21623XXSP,2013-01-26 16:52:00,
2013-01-26 10:57:00,16.7,9.2,30.13,WSW,247,0.0,4.3,72,0.00,,,0.00,WUHU21623XXSP,2013-01-26 16:57:00,
2013-01-26 11:02:00,16.9,9.4,30.13,SW,225,0.0,4.3,72,0.00,,,0.00,WUHU21623XXSP,2013-01-26 17:02:00,
2013-01-26 11:07:00,17.2,9.4,30.13,WSW,247,0.0,0.0,71,0.00,,,0.00,WUHU21623XXSP,2013-01-26 17:07:00,
2013-01-26 11:12:00,17.4,9.6,30.13,West,270,0.0,3.6,71,0.00,,,0.00,WUHU21623XXSP,2013-01-26 17:12:00,
2013-01-26 11:17:00,17.6,9.5,30.13,WSW,247,0.0,3.6,70,0.00,,,0.00,WUHU21623XXSP,2013-01-26 17:17:00,
2013-01-26 11:22:00,17.8,9.7,30.13,West,270,0.0,0.0,70,0.00,,,0.00,WUHU21623XXSP,2013-01-26 17:22:00,
2013-01-26 11:27:00,18.3,10.0,30.13,WSW,247,0.0,1.6,70,0.00,,,0.00,WUHU21623XXSP,2013-01-26 17:27:00,
2013-01-26 11:32:00,18.5,10.3,30.13,WSW,247,0.9,2.0,70,0.00,,,0.00,WUHU21623XXSP,2013-01-26 17:32:00,
2013-01-26 11:37:00,18.7,10.5,30.13,SW,225,1.6,2.0,70,0.00,,,0.00,WUHU21623XXSP,2013-01-26 17:37:00,
2013-01-26 11:42:00,19.0,10.8,30.13,SW,225,2.5,2.5,70,0.00,,,0.00,WUHU21623XXSP,2013-01-26 17:42:00,
2013-01-26 11:47:00,19.2,10.5,30.13,SW,225,2.5,2.5,69,0.00,,,0.00,WUHU21623XXSP,2013-01-26 17:47:00,
2013-01-26 11:52:00,19.2,10.6,30.13,SW,225,0.0,2.5,69,0.00,,,0.00,WUHU21623XXSP,2013-01-26 17:52:00,
2013-01-26 11:57:00,19.6,11.0,30.12,SW,225,0.0,2.0,69,0.00,,,0.00,WUHU21623XXSP,2013-01-26 17:57:00,
2013-01-26 12:02:00,19.8,11.1,30.12,West,270,0.0,0.0,69,0.00,,,0.00,WUHU21623XXSP,2013-01-26 18:02:00,
2013-01-26 12:07:00,20.1,11.5,30.12,SW,225,0.7,1.6,69,0.00,,,0.00,WUHU21623XXSP,2013-01-26 18:07:00,
2013-01-26 12:12:00,20.1,11.2,30.11,SW,225,0.0,1.6,68,0.00,,,0.00,WUHU21623XXSP,2013-01-26 18:12:00,
2013-01-26 12:17:00,20.3,11.2,30.11,WSW,247,3.1,3.1,68,0.00,,,0.00,WUHU21623XXSP,2013-01-26 18:17:00,
2013-01-26 12:22:00,20.5,11.3,30.12,WNW,292,2.2,4.5,68,0.00,,,0.00,WUHU21623XXSP,2013-01-26 18:22:00,
2013-01-26 12:27:00,20.5,11.2,30.12,SW,225,2.5,4.5,67,0.00,,,0.00,WUHU21623XXSP,2013-01-26 18:27:00,
2013-01-26 12:32:00,20.5,11.2,30.11,WSW,247,0.0,2.5,67,0.00,,,0.00,WUHU21623XXSP,2013-01-26 18:32:00,
2013-01-26 12:37:00,20.7,11.4,30.12,SW,225,0.0,4.0,67,0.00,,,0.00,WUHU21623XXSP,2013-01-26 18:37:00,
2013-01-26 12:55:00,21.4,12.1,30.11,West,270,2.2,2.2,67,0.00,,,0.00,WUHU21623XXSP,2013-01-26 18:55:00,
2013-01-26 13:00:00,21.6,11.9,30.11,WSW,247,0.0,2.2,66,0.00,,,0.00,WUHU21623XXSP,2013-01-26 19:00:00,
2013-01-26 13:05:00,21.7,12.1,30.11,WSW,247,0.0,0.0,66,0.00,,,0.00,WUHU21623XXSP,2013-01-26 19:05:00,
2013-01-26 13:10:00,21.7,12.1,30.11,WSW,247,0.0,0.0,66,0.00,,,0.00,WUHU21623XXSP,2013-01-26 19:10:00,
2013-01-26 13:15:00,21.9,12.2,30.11,WSW,247,2.0,3.1,66,0.00,,,0.00,WUHU21623XXSP,2013-01-26 19:15:00,
2013-01-26 13:20:00,21.9,11.9,30.11,SW,225,0.0,3.1,65,0.00,,,0.00,WUHU21623XXSP,2013-01-26 19:20:00,
2013-01-26 13:25:00,22.1,12.1,30.11,NW,315,0.0,0.0,65,0.00,,,0.00,WUHU21623XXSP,2013-01-26 19:25:00,
2013-01-26 13:30:00,22.3,12.2,30.11,West,270,0.0,0.0,65,0.00,,,0.00,WUHU21623XXSP,2013-01-26 19:30:00,
2013-01-26 13:36:00,22.5,12.0,30.11,WNW,292,0.0,1.1,64,0.00,,,0.00,WUHU21623XXSP,2013-01-26 19:36:00,
2013-01-26 13:41:00,22.6,12.2,30.11,West,270,3.1,3.1,64,0.00,,,0.00,WUHU21623XXSP,2013-01-26 19:41:00,
2013-01-26 13:46:00,22.8,12.4,30.12,WNW,292,3.1,3.1,64,0.00,,,0.00,WUHU21623XXSP,2013-01-26 19:46:00,
2013-01-26 13:51:00,22.8,12.4,30.11,WNW,292,2.5,3.1,64,0.00,,,0.00,WUHU21623XXSP,2013-01-26 19:51:00,
2013-01-26 13:56:00,23.0,12.6,30.11,West,270,2.0,2.5,64,0.00,,,0.00,WUHU21623XXSP,2013-01-26 19:56:00,
2013-01-26 14:01:00,23.0,12.6,30.12,WSW,247,0.0,2.5,64,0.00,,,0.00,WUHU21623XXSP,2013-01-26 20:01:00,
2013-01-26 14:06:00,23.0,12.6,30.11,West,270,0.0,0.9,64,0.00,,,0.00,WUHU21623XXSP,2013-01-26 20:06:00,
2013-01-26 14:11:00,23.2,12.7,30.12,WNW,292,1.8,1.8,64,0.00,,,0.00,WUHU21623XXSP,2013-01-26 20:11:00,
2013-01-26 14:16:00,23.4,12.5,30.12,WNW,292,0.0,1.8,63,0.00,,,0.00,WUHU21623XXSP,2013-01-26 20:16:00,
2013-01-26 14:21:00,23.4,12.5,30.12,WNW,292,0.0,0.0,63,0.00,,,0.00,WUHU21623XXSP,2013-01-26 20:21:00,
2013-01-26 14:26:00,23.4,12.5,30.11,WNW,292,2.5,2.5,63,0.00,,,0.00,WUHU21623XXSP,2013-01-26 20:26:00,
2013-01-26 14:31:00,23.5,12.4,30.12,West,270,2.9,2.9,62,0.00,,,0.00,WUHU21623XXSP,2013-01-26 20:31:00,
2013-01-26 14:36:00,23.5,12.4,30.12,West,270,2.9,2.9,62,0.00,,,0.00,WUHU21623XXSP,2013-01-26 20:36:00,
2013-01-26 14:41:00,23.7,12.9,30.12,WNW,292,0.0,2.9,63,0.00,,,0.00,WUHU21623XXSP,2013-01-26 20:41:00,
2013-01-26 14:46:00,24.1,12.9,30.12,WNW,292,0.0,1.6,62,0.00,,,0.00,WUHU21623XXSP,2013-01-26 20:46:00,
2013-01-26 14:51:00,24.4,13.2,30.13,WSW,247,0.0,3.8,62,0.00,,,0.00,WUHU21623XXSP,2013-01-26 20:51:00,
2013-01-26 14:56:00,24.6,13.4,30.13,WNW,292,0.0,3.8,62,0.00,,,0.00,WUHU21623XXSP,2013-01-26 20:56:00,
2013-01-26 15:01:00,24.6,13.1,30.13,East,90,0.0,1.8,61,0.00,,,0.00,WUHU21623XXSP,2013-01-26 21:01:00,
2013-01-26 15:06:00,24.6,13.1,30.12,WSW,247,0.0,1.8,61,0.00,,,0.00,WUHU21623XXSP,2013-01-26 21:06:00,
2013-01-26 15:11:00,24.4,12.9,30.13,WNW,292,0.0,3.8,61,0.00,,,0.00,WUHU21623XXSP,2013-01-26 21:11:00,
2013-01-26 15:16:00,24.1,12.5,30.12,NW,315,2.5,3.8,61,0.00,,,0.00,WUHU21623XXSP,2013-01-26 21:16:00,
2013-01-26 15:21:00,23.7,12.2,30.12,NW,315,0.0,2.5,61,0.00,,,0.00,WUHU21623XXSP,2013-01-26 21:21:00,
2013-01-26 15:26:00,23.7,12.2,30.12,East,90,1.6,3.6,61,0.00,,,0.00,WUHU21623XXSP,2013-01-26 21:26:00,
2013-01-26 15:31:00,23.7,12.2,30.12,NNW,337,0.0,3.6,61,0.00,,,0.00,WUHU21623XXSP,2013-01-26 21:31:00,
2013-01-26 15:36:00,23.5,12.2,30.13,NNW,337,0.0,1.6,61,0.00,,,0.00,WUHU21623XXSP,2013-01-26 21:36:00,
2013-01-26 15:41:00,23.2,11.6,30.13,NW,315,0.0,0.0,61,0.00,,,0.00,WUHU21623XXSP,2013-01-26 21:41:00,
2013-01-26 15:46:00,22.8,11.7,30.13,WNW,292,0.0,0.0,62,0.00,,,0.00,WUHU21623XXSP,2013-01-26 21:46:00,
2013-01-26 15:48:00,22.8,11.7,30.13,WNW,292,0.0,0.0,62,0.00,,,0.00,WUHU21623XXSP,2013-01-26 21:48:00,
2013-01-26 16:31:00,22.5,11.5,30.12,West,270,0.0,0.0,62,0.00,,,0.00,WUHU21623XXSP,2013-01-26 22:31:00,
2013-01-26 16:44:00,21.7,11.0,30.11,West,270,0.0,0.0,63,0.00,,,0.00,WUHU21623XXSP,2013-01-26 22:44:00,
2013-01-26 16:50:00,21.4,10.7,30.11,West,270,0.0,0.0,63,0.00,,,0.00,WUHU21623XXSP,2013-01-26 22:50:00,
2013-01-26 16:55:00,21.4,10.7,30.11,West,270,0.0,0.0,63,0.00,,,0.00,WUHU21623XXSP,2013-01-26 22:55:00,
2013-01-26 17:00:00,21.0,10.7,30.11,West,270,0.0,0.0,64,0.00,,,0.00,WUHU21623XXSP,2013-01-26 23:00:00,
2013-01-26 17:05:00,20.8,10.5,30.11,West,270,0.0,0.0,64,0.00,,,0.00,WUHU21623XXSP,2013-01-26 23:05:00,
2013-01-26 17:10:00,20.5,10.5,30.12,West,270,0.0,0.0,65,0.00,,,0.00,WUHU21623XXSP,2013-01-26 23:10:00,
2013-01-26 17:15:00,20.1,10.1,30.12,West,270,0.0,0.0,65,0.00,,,0.00,WUHU21623XXSP,2013-01-26 23:15:00,
2013-01-26 17:20:00,19.9,9.9,30.11,West,270,0.0,0.0,65,0.00,,,0.00,WUHU21623XXSP,2013-01-26 23:20:00,
2013-01-26 17:25:00,19.6,9.6,30.11,West,270,0.0,0.0,65,0.00,,,0.00,WUHU21623XXSP,2013-01-26 23:25:00,
2013-01-26 17:30:00,19.2,9.6,30.11,West,270,0.0,0.0,66,0.00,,,0.00,WUHU21623XXSP,2013-01-26 23:30:00,
2013-01-26 17:35:00,18.9,9.3,30.10,West,270,0.0,0.0,66,0.00,,,0.00,WUHU21623XXSP,2013-01-26 23:35:00,
2013-01-26 17:40:00,18.5,9.3,30.11,West,270,0.0,0.0,67,0.00,,,0.00,WUHU21623XXSP,2013-01-26 23:40:00,
2013-01-26 17:45:00,18.5,9.3,30.10,West,270,0.0,0.0,67,0.00,,,0.00,WUHU21623XXSP,2013-01-26 23:45:00,
2013-01-26 17:50:00,18.5,9.3,30.10,NW,315,0.0,0.0,67,0.00,,,0.00,WUHU21623XXSP,2013-01-26 23:50:00,
2013-01-26 17:55:00,18.3,9.1,30.11,NW,315,0.0,0.0,67,0.00,,,0.00,WUHU21623XXSP,2013-01-26 23:55:00,
2013-01-26 18:00:00,18.3,9.5,30.11,NW,315,0.0,0.0,68,0.00,,,0.00,WUHU21623XXSP,2013-01-27 00:00:00,
2013-01-26 18:05:00,18.3,9.5,30.11,SSE,157,2.9,2.9,68,0.00,,,0.00,WUHU21623XXSP,2013-01-27 00:05:00,
2013-01-26 18:10:00,18.5,9.6,30.12,SE,135,1.3,2.9,68,0.00,,,0.00,WUHU21623XXSP,2013-01-27 00:10:00,
2013-01-26 18:15:00,19.0,10.5,30.12,East,90,0.0,2.9,69,0.00,,,0.00,WUHU21623XXSP,2013-01-27 00:15:00,
2013-01-26 18:20:00,19.6,11.0,30.12,ESE,112,0.0,1.3,69,0.00,,,0.00,WUHU21623XXSP,2013-01-27 00:20:00,
2013-01-26 18:25:00,19.8,11.1,30.12,SE,135,0.0,0.0,69,0.00,,,0.00,WUHU21623XXSP,2013-01-27 00:25:00,
2013-01-26 18:30:00,19.9,11.3,30.13,SE,135,0.0,0.0,69,0.00,,,0.00,WUHU21623XXSP,2013-01-27 00:30:00,
2013-01-26 18:35:00,20.1,11.5,30.13,East,90,0.0,2.5,69,0.00,,,0.00,WUHU21623XXSP,2013-01-27 00:35:00,
2013-01-26 18:40:00,20.5,11.9,30.13,ESE,112,0.0,2.5,69,0.00,,,0.00,WUHU21623XXSP,2013-01-27 00:40:00,
2013-01-26 18:45:00,20.8,12.2,30.13,ESE,112,0.0,0.0,69,0.00,,,0.00,WUHU21623XXSP,2013-01-27 00:45:00,
2013-01-26 18:50:00,20.8,12.2,30.12,SE,135,0.0,0.0,69,0.00,,,0.00,WUHU21623XXSP,2013-01-27 00:50:00,
2013-01-26 18:55:00,21.0,12.4,30.12,SE,135,2.9,2.9,69,0.00,,,0.00,WUHU21623XXSP,2013-01-27 00:55:00,
2013-01-26 19:00:00,20.8,12.2,30.12,SE,135,2.0,4.0,69,0.00,,,0.00,WUHU21623XXSP,2013-01-27 01:00:00,
2013-01-26 19:05:00,21.0,12.7,30.13,SE,135,2.5,4.0,70,0.00,,,0.00,WUHU21623XXSP,2013-01-27 01:05:00,
2013-01-26 19:10:00,21.0,12.7,30.13,SE,135,2.0,2.5,70,0.00,,,0.00,WUHU21623XXSP,2013-01-27 01:10:00,
2013-01-26 19:15:00,21.2,12.9,30.12,SE,135,3.6,3.8,70,0.00,,,0.00,WUHU21623XXSP,2013-01-27 01:15:00,
2013-01-26 19:31:00,21.6,13.1,30.12,SE,135,2.5,2.5,69,0.00,,,0.00,WUHU21623XXSP,2013-01-27 01:31:00,
2013-01-26 19:57:00,21.7,12.8,30.12,SE,135,0.0,0.0,68,0.00,,,0.00,WUHU21623XXSP,2013-01-27 01:57:00,
2013-01-26 20:02:00,21.7,12.8,30.12,ESE,112,0.0,0.0,68,0.00,,,0.00,WUHU21623XXSP,2013-01-27 02:02:00,
2013-01-26 20:07:00,21.6,12.6,30.12,SE,135,0.0,0.0,68,0.00,,,0.00,WUHU21623XXSP,2013-01-27 02:07:00,
2013-01-26 20:12:00,21.6,12.6,30.12,SE,135,0.0,0.0,68,0.00,,,0.00,WUHU21623XXSP,2013-01-27 02:12:00,
2013-01-26 20:17:00,21.4,12.6,30.12,SE,135,2.0,2.0,68,0.00,,,0.00,WUHU21623XXSP,2013-01-27 02:17:00,
2013-01-26 20:22:00,21.4,12.4,30.12,SSE,157,0.9,2.5,68,0.00,,,0.00,WUHU21623XXSP,2013-01-27 02:22:00,
2013-01-26 20:27:00,21.4,12.4,30.13,SE,135,2.0,2.5,68,0.00,,,0.00,WUHU21623XXSP,2013-01-27 02:27:00,
2013-01-26 20:32:00,21.4,12.4,30.13,SE,135,3.6,3.6,68,0.00,,,0.00,WUHU21623XXSP,2013-01-27 02:32:00,
2013-01-26 20:37:00,21.4,12.4,30.13,SE,135,0.0,3.6,68,0.00,,,0.00,WUHU21623XXSP,2013-01-27 02:37:00,
2013-01-26 20:42:00,21.6,12.6,30.13,SE,135,2.5,3.6,68,0.00,,,0.00,WUHU21623XXSP,2013-01-27 02:42:00,
2013-01-26 20:47:00,21.6,12.6,30.13,ESE,112,2.7,2.7,68,0.00,,,0.00,WUHU21623XXSP,2013-01-27 02:47:00,
2013-01-26 20:53:00,21.7,12.8,30.13,SE,135,4.0,4.5,68,0.00,,,0.00,WUHU21623XXSP,2013-01-27 02:53:00,
2013-01-26 20:58:00,21.7,12.8,30.13,SE,135,5.1,5.1,68,0.00,,,0.00,WUHU21623XXSP,2013-01-27 02:58:00,
2013-01-26 21:03:00,21.9,12.9,30.12,SE,135,4.0,5.1,68,0.00,,,0.00,WUHU21623XXSP,2013-01-27 03:03:00,
2013-01-26 21:08:00,21.9,12.9,30.13,SE,135,3.6,4.0,68,0.00,,,0.00,WUHU21623XXSP,2013-01-27 03:08:00,
2013-01-26 21:13:00,22.1,13.1,30.13,SE,135,3.1,3.6,68,0.00,,,0.00,WUHU21623XXSP,2013-01-27 03:13:00,
2013-01-26 21:18:00,22.1,13.1,30.13,SE,135,2.9,4.5,68,0.00,,,0.00,WUHU21623XXSP,2013-01-27 03:18:00,
2013-01-26 21:23:00,22.1,13.1,30.14,SE,135,3.1,4.5,68,0.00,,,0.00,WUHU21623XXSP,2013-01-27 03:23:00,
2013-01-26 21:28:00,22.1,13.1,30.13,SE,135,4.7,4.7,68,0.00,,,0.00,WUHU21623XXSP,2013-01-27 03:28:00,
2013-01-26 21:33:00,22.3,13.3,30.13,SE,135,3.8,4.7,68,0.00,,,0.00,WUHU21623XXSP,2013-01-27 03:33:00,
2013-01-26 21:38:00,22.1,13.1,30.13,SE,135,3.8,4.7,68,0.00,,,0.00,WUHU21623XXSP,2013-01-27 03:38:00,
2013-01-26 21:43:00,22.3,13.3,30.13,SE,135,4.3,4.5,68,0.00,,,0.00,WUHU21623XXSP,2013-01-27 03:43:00,
2013-01-26 21:48:00,22.3,13.3,30.13,SE,135,2.9,4.5,68,0.00,,,0.00,WUHU21623XXSP,2013-01-27 03:48:00,
2013-01-26 21:53:00,22.1,13.1,30.13,SE,135,4.5,4.5,68,0.00,,,0.00,WUHU21623XXSP,2013-01-27 03:53:00,
2013-01-26 21:58:00,22.3,13.3,30.13,SE,135,1.8,4.5,68,0.00,,,0.00,WUHU21623XXSP,2013-01-27 03:58:00,
2013-01-26 22:03:00,22.3,13.3,30.13,SE,135,4.5,4.5,68,0.00,,,0.00,WUHU21623XXSP,2013-01-27 04:03:00,
2013-01-26 22:08:00,22.3,13.3,30.13,SE,135,3.1,4.5,68,0.00,,,0.00,WUHU21623XXSP,2013-01-27 04:08:00,
2013-01-26 22:13:00,22.3,13.3,30.13,SE,135,2.9,4.5,68,0.00,,,0.00,WUHU21623XXSP,2013-01-27 04:13:00,
2013-01-26 22:18:00,22.5,13.5,30.13,ESE,112,4.3,4.5,68,0.00,,,0.00,WUHU21623XXSP,2013-01-27 04:18:00,
2013-01-26 22:22:00,22.5,13.5,30.13,SE,135,3.6,5.4,68,0.00,,,0.00,WUHU21623XXSP,2013-01-27 04:22:00,
2013-01-26 22:31:00,22.6,14.0,30.13,ESE,113,3.4,3.6,69,0.00,,,0.00,WUHU21623XXSP,2013-01-27 04:31:00,
2013-01-26 23:10:00,22.8,14.2,30.12,SE,135,5.4,5.4,69,0.00,,,0.00,WUHU21623XXSP,2013-01-27 05:10:00,
2013-01-26 23:11:00,22.8,14.2,30.12,SE,135,5.4,5.4,69,0.00,,,0.00,WUHU21623XXSP,2013-01-27 05:11:00,
2013-01-26 23:16:00,23.0,14.4,30.12,SE,135,3.6,5.4,69,0.00,,,0.00,WUHU21623XXSP,2013-01-27 05:16:00,
2013-01-26 23:21:00,23.0,14.4,30.12,SSE,157,5.1,5.1,69,0.00,,,0.00,WUHU21623XXSP,2013-01-27 05:21:00,
2013-01-26 23:26:00,23.2,14.5,30.12,SE,135,6.5,6.5,69,0.00,,,0.00,WUHU21623XXSP,2013-01-27 05:26:00,
2013-01-26 23:31:00,23.2,14.5,30.12,SE,135,4.9,6.5,69,0.00,,,0.00,WUHU21623XXSP,2013-01-27 05:31:00,
2013-01-26 23:36:00,23.2,14.5,30.11,SE,135,8.5,8.5,69,0.00,,,0.00,WUHU21623XXSP,2013-01-27 05:36:00,
2013-01-26 23:41:00,23.4,14.7,30.11,SE,135,2.0,8.5,69,0.00,,,0.00,WUHU21623XXSP,2013-01-27 05:41:00,
2013-01-26 23:46:00,23.4,14.7,30.11,ESE,112,2.9,6.7,69,0.00,,,0.00,WUHU21623XXSP,2013-01-27 05:46:00,
2013-01-26 23:51:00,23.5,14.8,30.11,SE,135,2.9,3.8,69,0.00,,,0.00,WUHU21623XXSP,2013-01-27 05:51:00,
2013-01-26 23:56:00,23.5,14.8,30.12,SE,135,5.4,5.4,69,0.00,,,0.00,WUHU21623XXSP,2013-01-27 05:56:00,